Regional Weather Roundup
Issued by NWS Kansas City/Pleasant Hill, MO

Home | Current Version | Previous Version | Text Only | Print | Product List | Glossary On
Versions: 1 2 3 4 5 6 7 8 9 10 11 12 13 14 15 16 17 18 19 20 21 22 23 24 25 26 27 28 29 30 31 32 33 34 35 36 37 38 39 40 41 42 43 44 45 46 47 48 49 50
000
ASUS43 KEAX 021304
RWREAX

WEATHER ROUNDUP FOR EASTERN KANSAS AND NORTHWEST MISSOURI
NATIONAL WEATHER SERVICE KANSAS CITY/PLEASANT HILL MO
800 AM CDT THU JUL 02 2015

KSZ040-057-103>105-MOZ028-029-037-043-021400-
...KANSAS CITY METROPOLITAN AREA...

CITY           SKY/WX    TMP DP  RH WIND       PRES   REMARKS
K.C. INTL      CLOUDY    71  68  90 NE8       29.90R FOG
K.C. DOWNTOWN  CLOUDY    73  69  87 NE9       29.88R
LEES SUMMIT    CLOUDY    72  69  90 NE8       29.89R
OLATHE - IXD   CLOUDY    72  68  87 E8        29.89R
OLATHE - OJC   CLOUDY    70  68  93 NE10      29.88R
LAWRENCE       CLOUDY    73  69  87 N7        29.89R FOG

$$

MOZ001>008-011>017-020>025-030>033-038>040-044>046-053-054-021400-
...NORTHERN AND CENTRAL MISSOURI...

CITY           SKY/WX    TMP DP  RH WIND       PRES   REMARKS
ST. JOSEPH     CLOUDY    70  67  90 NE8       29.92R
MOSBY          CLOUDY    70  68  94 N5        29.90R
HARRISONVILLE  CLOUDY    72  70  94 E5        29.90R FOG
WHITEMAN AFB   CLOUDY    71  69  92 VRB5      29.86S
CLINTON        CLOUDY    70  70 100 N5        29.86F FOG
SEDALIA        CLOUDY    72  68  87 E5        29.88S
WARSAW         FOG       68  68 100 N8        29.87S VSB 1
CHILLICOTHE      N/A     68  65  90 NE12      29.93R
KIRKSVILLE     LGT RAIN  65  62  90 NE9       29.94S FOG

$$

MOZ041-047>049-056>058-063>065-088>090-097-021400-
...EASTERN AND SOUTHERN MISSOURI...

CITY           SKY/WX    TMP DP  RH WIND       PRES   REMARKS
ST. LOUIS INTL LGT RAIN  66  62  87 NE6       29.89R FOG
SPIRIT OF STL  CLOUDY    66  65  96 NE9       29.87R FOG
COLUMBIA       CLOUDY    71  69  93 NE13      29.87R FOG
JEFFERSON CITY CLOUDY    72  69  90 E8        29.85S
MEXICO         CLOUDY   N/A N/A N/A NE13      29.90R
ROLLA          PTSUNNY   70  68  93 VRB3      29.86R
LEBANON        LGT RAIN  72  68  88 SE5       29.88R
OSAGE BEACH    CLOUDY    70  66  88 NE6       29.86S VSB 1/2
SPRINGFIELD    MOSUNNY   71  67  87 S15       29.85S
BRANSON        CLOUDY    68  68 100 S6        29.90S
JOPLIN         PTSUNNY   79  71  76 S9        29.82F
WEST PLAINS    LGT RAIN  69  66  90 SW15G21   29.89F
MALDEN         PTSUNNY   81  72  74 SW6       29.85S

$$

IAZ060-094-KSZ022-034>040-054-083-096-NEZ052-066-093-021400-
...KANSAS...SOUTHEAST NEBRASKA AND IOWA...

CITY           SKY/WX    TMP DP  RH WIND       PRES   REMARKS
TOPEKA         CLOUDY    74  70  87 N7        29.89R
MANHATTAN      CLOUDY    75  70  84 NE9       29.91R
EMPORIA        CLOUDY    73  69  87 NE14      29.87S
CHANUTE        PTSUNNY   74  70  87 N7        29.84R
WICHITA        CLOUDY    77  72  84 N9        29.88R
OMAHA          CLOUDY    64  59  83 E5        29.95F
LINCOLN        CLOUDY    67  63  87 E6        29.95R FOG
FALLS CITY     CLOUDY    70  67  90 NE7       29.92S FOG
LAMONI         CLOUDY    64  59  83 NE5       29.97R
DES MOINES     CLOUDY    61  54  77 E7        29.99R

$$



USA.gov is the U.S. government's official web portal to all federal, state and local government web resources and services.